Location: Asheville, NC
(35.6000°N, 82.5500°W)
Time: 22:57:05

Vanguard 1 Rocket - Pass Details

Date: 09 March 2018
Orbit: 655 x 4222 km, 34.3° (Epoch: 20 March)

Event Time Altitude Azimuth Distance (km) Brightness Sun altitude
Rises 04:44:12 0° 276° (W) 8,200 - -26.1°
Reaches altitude 10° 04:55:25 10° 255° (WSW) 7,419 - -23.9°
Maximum altitude 05:04:36 13° 234° (SW) 7,052 - -22.0°
Exits shadow 05:07:02 13° 228° (SW) 7,004 11.4 -21.6°
Drops below altitude 10° 05:13:27 10° 212° (SSW) 6,989 11.5 -20.3°
Sets 05:23:35 0° 188° (S) 7,324 11.9 -18.2°
